[[{"header":{"parameterUnit":"m.s-1","parameterCategory":1,"la1":30.2991,"la2":30.254,"lo1":-89.0895,"lo2":-89.0444,"dy":0.0017,"dx":0.0017,"nx":28,"ny":28,"refTime":"2024-10-05T09:00:00:Z","depth":0,"parameterNumber":2,"parameterNumberName":"U-component_of_WINDS"},"data":[0,0,0,0,0,0,0,0,0,0,0,0,0,0,0,0,0,0,0,0,0,0,0,0,0,0,0,0,0,0,0,0,0,0,0,0,0,0,0,0,0,0,0,0,0,0,0,0,0,0,0,0,0,0,0,0,0,0,-4.8419,-4.8419,0,-4.8448,-4.8448,-4.8448,-4.8268,-4.8263,-4.8258,-4.8253,-4.8283,-4.8288,-4.8293,0,0,0,0,0,0,0,0,0,0,0,0,0,-4.8208,-4.8213,-4.8419,-4.8419,-4.842,-4.8448,-4.8448,-4.8448,-4.8269,-4.8263,-4.8256,-4.8251,-4.8281,-4.8287,-4.8294,0,0,0,0,0,0,0,0,0,0,0,0,0,-4.8275,-4.8214,-4.8419,-4.8333,-4.8326,-4.8448,-4.8448,-4.8449,-4.827,-4.8262,-4.8255,-4.8248,-4.8279,-4.8287,-4.8295,-4.85,0,0,-4.832,-4.8324,0,0,0,0,0,0,0,0,-4.8271,-4.8282,-4.8346,-4.834,-4.8332,-4.8346,-4.8384,-4.8466,-4.8272,-4.8292,-4.8253,-4.8244,-4.831,-4.8315,-4.8337,-4.8501,-4.8502,-4.8321,-4.8326,-4.833,-4.8332,0,0,0,0,0,0,0,-4.8267,-4.828,-4.843,-4.8347,-4.8338,-4.8293,-4.8294,-4.8399,-4.8343,-4.8289,-4.8276,-4.8282,-4.8305,-4.833,-4.8337,-4.8503,-4.8321,-4.8328,-4.8333,-4.8337,-4.8836,-4.8844,0,0,0,0,0,0,-4.8273,-4.8278,-4.8429,-4.8431,-4.8282,-4.8304,-4.8305,-4.8349,-4.8342,-4.8333,-4.8289,-4.8274,-4.8319,-4.8327,-4.8337,-4.8576,-4.833,-4.8337,-4.8342,-4.8828,-4.8838,-4.8846,0,0,0,0,0,0,-4.827,-4.8289,-4.8428,-4.8351,-4.8365,-4.8315,-4.8367,-4.8354,-4.8379,-4.8341,-4.833,-4.8325,-4.8314,-4.8325,-4.8461,-4.8575,-4.8341,-4.8349,-4.8818,-4.8831,-4.8842,-4.9057,0,0,0,0,0,0,-4.8264,-4.8288,-4.8366,-4.8354,-4.837,-4.8552,-4.8374,-4.836,-4.8394,-4.8374,-4.8372,-4.8364,-4.8309,-4.8449,-4.8469,-4.8582,-4.8355,-4.8807,-4.8823,-4.8838,-4.904,-4.9076,-4.9106,0,0,0,0,0,-4.8257,-4.8425,-4.8371,-4.839,-4.8466,-4.8559,-4.8568,-4.85,-4.8404,-4.8481,-4.8457,-4.8365,-4.8559,-4.8465,-4.8485,-4.8603,-4.88,-4.8819,-4.8837,-4.9025,-4.9069,-4.9105,0,0,0,0,0,0,-4.8452,-4.8422,-4.8361,-4.8531,-4.8549,-4.8528,-4.8624,-4.8549,-4.8594,-4.8574,-4.8488,-4.8489,-4.8639,-4.8634,-4.8529,-4.8801,-4.8663,-4.8686,-4.8799,-4.884,-4.8872,-4.8871,-4.8362,0,0,0,0,0,-4.8515,-4.8593,-4.8562,-4.8715,-4.8727,-4.8675,-4.8712,-4.8659,-4.8674,-4.8681,-4.8666,-4.8684,-4.8749,-4.8794,-4.8852,-4.9038,-4.9035,-4.9129,-4.9162,-4.919,-4.9211,-4.931,-4.9351,-4.8908,-4.8907,-4.8907,0,0,-4.8645,-4.8638,-4.8693,-4.8754,-4.8761,-4.8844,-4.8682,-4.8776,-4.8837,-4.8695,-4.8821,-4.8812,-4.8826,-4.8988,-4.9059,-4.8989,-4.9333,-4.9213,-4.9236,-4.9242,-4.9333,-4.9375,-4.9413,-4.892,-4.8918,-4.8916,0,0,-4.8924,-4.8927,-4.9054,-4.9066,-4.9079,-4.9043,-4.9074,-4.9065,-4.9053,-4.9179,-4.9074,-4.9145,-4.9259,-4.9274,-4.9296,-4.9582,-4.9499,-4.9603,-4.9777,-4.9874,-4.9909,-4.9939,-5.0041,-5.0079,-4.9625,-4.9625,-4.9626,0,-4.9084,-4.9205,-4.9129,-4.9231,-4.9261,-4.9136,-4.9264,-4.9278,-4.9311,-4.9334,-4.9255,-4.9396,-4.9397,-4.956,-4.963,-4.9652,-4.9685,-4.9603,-4.991,-4.994,-4.9967,-5.0064,-5.0102,-4.9638,-4.9636,-4.9635,-4.9634,0,-4.9401,-4.9487,-4.9588,-4.9622,-4.9663,-4.9778,-4.9719,-4.977,-4.9713,-4.9686,-4.9815,-4.9812,-4.9867,-4.9902,-4.9847,-5.0058,-5.0014,-4.9925,-4.9784,-5.0023,-5.0112,-5.0149,-4.9656,-4.9651,-4.9648,-4.9645,0,0,-4.9804,-4.9795,-4.9834,-4.9848,-4.9854,-4.9919,-5.0028,-5.0081,-5.0127,-5.0153,-5.0242,-5.0342,-5.0258,-5.0284,-5.023,-5.0315,-5.0542,-5.0214,-5.0213,-5.0275,-5.0775,-5.0843,-5.0887,-5.0487,-5.0493,-5.0499,-5.0774,0,-5.0077,-5.0263,-5.0198,-5.0388,-5.0466,-5.0348,-5.0443,-5.0457,-5.0435,-5.0497,-5.0471,-5.0543,-5.0428,-5.0442,-5.0521,-5.0498,-5.0641,-5.0477,-5.0569,-5.0573,-5.057,-5.0934,-5.1006,-5.1266,-5.0808,-5.0814,-5.0818,0,-5.0421,-5.0462,-5.066,-5.0652,-5.0682,-5.0769,-5.0813,-5.0875,-5.0888,-5.0865,-5.0895,-5.0822,-5.0928,-5.0788,-5.0933,-5.0823,-5.0857,-5.0851,-5.086,-5.0866,-5.0711,-5.095,-5.1347,-5.1386,-5.0872,-5.0868,-5.0864,0,-5.0696,-5.08,-5.0931,-5.0947,-5.0942,-5.1006,-5.1007,-5.1012,-5.1049,-5.1088,-5.1111,-5.1162,-5.119,-5.1231,-5.1174,-5.1077,-5.1328,-5.1182,-5.1312,-5.1314,-5.137,-5.1368,-5.1779,-5.1392,-5.1392,-5.1391,-5.139,0,-5.1008,-5.1133,-5.1055,-5.1136,-5.1273,-5.1197,-5.1335,-5.1322,-5.1329,-5.1405,-5.1307,-5.1381,-5.13,-5.1367,-5.1323,-5.145,-5.1464,-5.1448,-5.1435,-5.1458,-5.146,-5.1479,-5.146,-5.1401,-5.1399,-5.1397,-5.1395,0,-5.1338,-5.129,-5.1426,-5.141,-5.1409,-5.1511,-5.1497,-5.1572,-5.1542,-5.164,-5.1659,-5.1612,-5.1685,-5.1632,-5.1705,-5.1675,-5.1843,-5.1804,-5.1839,-5.1828,-5.1961,-5.195,-5.2399,-5.2454,-5.2033,-5.2037,-5.204,0,-5.154,-5.1634,-5.1629,-5.1673,-5.1681,-5.1753,-5.179,-5.1719,-5.1762,-5.1784,-5.1856,-5.1921,-5.1969,-5.2091,-5.2064,-5.2119,-5.2081,-5.2235,-5.2089,-5.2109,-5.2084,-5.208,-5.2089,-5.2265,-5.227,-5.2274,-5.2277,0,-5.1905,-5.1877,-5.1934,-5.1984,-5.2031,-5.2067,-5.2095,-5.2137,-5.2064,-5.2117,-5.2191,-5.2228,-5.2303,-5.2368,-5.2414,-5.2413,-5.2335,-5.2323,-5.2356,-5.238,-5.2397,-5.239,-5.192,-5.2313,-5.231,-5.2307,-5.2305,-5.2304,-5.2177,-5.2256,-5.2264,-5.2332,-5.2345,-5.2373,-5.2442,-5.2422,-5.2482,-5.2537,-5.2491,-5.258,-5.259,-5.2643,-5.2653,-5.2721,-5.2658,-5.2706,-5.2718,-5.2731,-5.275,-5.2386,-5.2729,-5.2728,-5.2727,-5.2726,-5.2725,0,-5.2537,-5.2537,-5.26,-5.2642,-5.2695,-5.2616,-5.2642,-5.2692,-5.2771,-5.2788,-5.2837,-5.2922,-5.2986,-5.2964,-5.302,-5.3079,-5.3044,-5.3096,-5.3091,-5.3092,-5.2803,-5.2769,-5.3123,-5.3123,-5.3123,-5.3123,-5.3123,-5.3123,-5.2731,-5.2859,-5.2832,-5.2966,-5.2964,-5.3051,-5.3073,-5.3098,-5.3111,-5.3211,-5.3263,-5.3248,-5.325,-5.3305,-5.336,-5.3351,-5.3377,-5.3443,-5.3422,-5.3152,-5.3113,-5.3075,-5.3043,-5.3449,-5.3449,-5.3705,-5.3707,-5.3709]},{"header":{"parameterUnit":"m.s-1","parameterCategory":1,"la1":30.2991,"la2":30.254,"lo1":-89.0895,"lo2":-89.0444,"dy":0.0017,"dx":0.0017,"nx":28,"ny":28,"refTime":"2024-10-05T09:00:00:Z","depth":0,"parameterNumber":3,"parameterNumberName":"V-component_of_WINDS"},"data":[0,0,0,0,0,0,0,0,0,0,0,0,0,0,0,0,0,0,0,0,0,0,0,0,0,0,0,0,0,0,0,0,0,0,0,0,0,0,0,0,0,0,0,0,0,0,0,0,0,0,0,0,0,0,0,0,0,0,-1.9928,-1.9928,0,-1.988,-1.9879,-1.9879,-1.9819,-1.9818,-1.9818,-1.9817,-1.9768,-1.9768,-1.9767,0,0,0,0,0,0,0,0,0,0,0,0,0,-1.9968,-1.9968,-1.9928,-1.9928,-1.9927,-1.988,-1.9879,-1.9879,-1.982,-1.9818,-1.9817,-1.9816,-1.9768,-1.9768,-1.9767,0,0,0,0,0,0,0,0,0,0,0,0,0,-1.9939,-1.9968,-1.9928,-1.9892,-1.9888,-1.988,-1.9879,-1.9879,-1.982,-1.9818,-1.9817,-1.9816,-1.9769,-1.9768,-1.9767,-1.9792,0,0,-1.9765,-1.9765,0,0,0,0,0,0,0,0,-1.9941,-1.9937,-1.9898,-1.9894,-1.989,-1.9854,-1.9876,-1.9849,-1.982,-1.9846,-1.9817,-1.9815,-1.9798,-1.9795,-1.9789,-1.9789,-1.9787,-1.9765,-1.9765,-1.9765,-1.9765,0,0,0,0,0,0,0,-1.9943,-1.9939,-1.9909,-1.9897,-1.9893,-1.9878,-1.9872,-1.987,-1.983,-1.9843,-1.9839,-1.9834,-1.9796,-1.979,-1.9787,-1.9787,-1.9765,-1.9765,-1.9764,-1.9764,-1.9802,-1.9804,0,0,0,0,0,0,-1.995,-1.9941,-1.9911,-1.9908,-1.9912,-1.9878,-1.9872,-1.9867,-1.983,-1.9823,-1.9835,-1.9831,-1.9791,-1.9788,-1.9785,-1.981,-1.9765,-1.9764,-1.9764,-1.9801,-1.9803,-1.9804,0,0,0,0,0,0,-1.9951,-1.9948,-1.9913,-1.9923,-1.9918,-1.9879,-1.9874,-1.9867,-1.9861,-1.9824,-1.9817,-1.9837,-1.979,-1.9786,-1.979,-1.9808,-1.9764,-1.9763,-1.9799,-1.9801,-1.9803,-1.9861,0,0,0,0,0,0,-1.9953,-1.9949,-1.9958,-1.9924,-1.9917,-1.9918,-1.9876,-1.9867,-1.986,-1.9854,-1.9823,-1.9817,-1.9789,-1.9791,-1.9789,-1.9806,-1.9763,-1.9798,-1.98,-1.9803,-1.9857,-1.9865,-1.9871,0,0,0,0,0,-1.9954,-1.9977,-1.9959,-1.9955,-1.9928,-1.992,-1.9916,-1.9883,-1.9862,-1.987,-1.9846,-1.9818,-1.9806,-1.9792,-1.979,-1.9806,-1.9796,-1.9799,-1.9803,-1.9854,-1.9863,-1.9871,0,0,0,0,0,0,-2.0015,-1.9972,-1.9951,-1.9963,-1.9945,-1.991,-1.992,-1.9894,-1.9882,-1.9877,-1.9837,-1.983,-1.9839,-1.9823,-1.9808,-1.9827,-1.9797,-1.98,-1.9837,-1.9845,-1.9852,-1.9856,-1.9762,0,0,0,0,0,-2.0029,-2.0026,-1.9989,-2.0003,-1.9995,-1.9959,-1.9954,-1.993,-1.991,-1.9902,-1.9879,-1.986,-1.9852,-1.9848,-1.9839,-1.9854,-1.9846,-1.9865,-1.9872,-1.9877,-1.988,-1.9886,-1.9893,-1.9814,-1.9814,-1.9814,0,0,-2.006,-2.0036,-2.0037,-2.0014,-1.9998,-1.9995,-1.9953,-1.9952,-1.995,-1.9902,-1.9904,-1.9886,-1.9863,-1.9872,-1.9875,-1.9859,-1.99,-1.9881,-1.9886,-1.9886,-1.989,-1.9897,-1.9904,-1.9816,-1.9816,-1.9816,0,0,-2.0114,-2.0096,-2.0105,-2.0088,-2.0063,-2.0039,-2.0041,-2.0009,-1.9995,-1.9995,-1.9959,-1.9955,-1.9943,-1.9927,-1.9918,-1.9963,-1.9936,-1.9961,-1.9998,-2.0004,-2.001,-2.0015,-2.0031,-2.0037,-1.9964,-1.9965,-1.9965,0,-2.0155,-2.0149,-2.0113,-2.0114,-2.0105,-2.006,-2.0069,-2.0055,-2.0029,-2.0023,-2.0005,-1.9987,-1.9969,-1.9973,-1.9984,-1.9978,-1.9979,-1.9965,-2.0012,-2.0017,-2.0021,-2.0035,-2.0041,-1.9968,-1.9967,-1.9967,-1.9967,0,-2.02,-2.0197,-2.0207,-2.0182,-2.0174,-2.0179,-2.0142,-2.0139,-2.0115,-2.0092,-2.0092,-2.0068,-2.0052,-2.0052,-2.0029,-2.0052,-2.0043,-2.0019,-1.9988,-2.0033,-2.0045,-2.005,-1.9972,-1.9971,-1.997,-1.9969,0,0,-2.0292,-2.0245,-2.025,-2.0237,-2.0205,-2.0201,-2.0204,-2.0187,-2.0184,-2.0167,-2.0167,-2.0157,-2.0134,-2.0123,-2.0098,-2.0103,-2.0139,-2.0078,-2.0077,-2.009,-2.0162,-2.018,-2.0187,-2.0121,-2.0122,-2.0123,-2.0164,0,-2.034,-2.0341,-2.0307,-2.0318,-2.0313,-2.027,-2.0272,-2.0253,-2.0231,-2.0224,-2.02,-2.0192,-2.0163,-2.0156,-2.0159,-2.0134,-2.0153,-2.0131,-2.012,-2.0121,-2.0128,-2.0194,-2.0213,-2.0254,-2.0169,-2.017,-2.017,0,-2.0396,-2.0381,-2.0391,-2.0357,-2.0354,-2.0356,-2.0337,-2.0331,-2.0308,-2.0291,-2.0278,-2.0249,-2.0248,-2.0218,-2.0216,-2.0201,-2.0195,-2.0182,-2.0182,-2.018,-2.0148,-2.0193,-2.0266,-2.0272,-2.0178,-2.0177,-2.0177,0,-2.0461,-2.0443,-2.0446,-2.0436,-2.0397,-2.04,-2.0383,-2.0358,-2.035,-2.0334,-2.0328,-2.0312,-2.0304,-2.0292,-2.0258,-2.024,-2.0259,-2.0227,-2.0245,-2.0246,-2.0252,-2.0252,-2.0324,-2.0248,-2.0248,-2.0248,-2.0248,0,-2.0518,-2.0525,-2.0474,-2.0477,-2.0483,-2.0444,-2.0451,-2.0431,-2.0408,-2.0405,-2.0367,-2.0365,-2.0321,-2.0314,-2.0288,-2.0289,-2.0285,-2.0272,-2.0265,-2.0275,-2.0277,-2.027,-2.0266,-2.0249,-2.0249,-2.0249,-2.0248,0,-2.0592,-2.0558,-2.0558,-2.0521,-2.0511,-2.0518,-2.0485,-2.0485,-2.046,-2.0456,-2.0453,-2.0415,-2.0404,-2.0369,-2.035,-2.0332,-2.0341,-2.0328,-2.0349,-2.0344,-2.0364,-2.0362,-2.0434,-2.0441,-2.0362,-2.0362,-2.0363,0,-2.063,-2.0634,-2.0597,-2.0592,-2.0577,-2.0569,-2.056,-2.0521,-2.0514,-2.0486,-2.0489,-2.0474,-2.0461,-2.0445,-2.0415,-2.0399,-2.0385,-2.0412,-2.0383,-2.0393,-2.0385,-2.0385,-2.0385,-2.0418,-2.0419,-2.042,-2.0421,0,-2.0701,-2.0684,-2.0673,-2.0655,-2.0645,-2.063,-2.0612,-2.061,-2.0566,-2.0559,-2.0547,-2.0536,-2.0516,-2.0502,-2.0481,-2.0463,-2.0435,-2.043,-2.0433,-2.0444,-2.0455,-2.0448,-2.0365,-2.0428,-2.0428,-2.0427,-2.0427,-2.0426,-2.0758,-2.0759,-2.0733,-2.0721,-2.0703,-2.0687,-2.0684,-2.0659,-2.0648,-2.0628,-2.0605,-2.0595,-2.057,-2.0539,-2.0523,-2.0514,-2.0499,-2.0504,-2.0505,-2.0507,-2.0511,-2.0457,-2.0511,-2.051,-2.051,-2.051,-2.051,0,-2.0827,-2.0807,-2.0796,-2.0772,-2.0762,-2.0735,-2.0714,-2.0708,-2.0699,-2.0678,-2.0665,-2.065,-2.0636,-2.0604,-2.0586,-2.0585,-2.0572,-2.0582,-2.0582,-2.0578,-2.0527,-2.0525,-2.0593,-2.0593,-2.0593,-2.0593,-2.0593,-2.0593,-2.0861,-2.0862,-2.0841,-2.0832,-2.0812,-2.0802,-2.0792,-2.0776,-2.0758,-2.0744,-2.0731,-2.071,-2.0684,-2.0664,-2.0649,-2.064,-2.0635,-2.065,-2.0637,-2.059,-2.0582,-2.0574,-2.0573,-2.0649,-2.065,-2.0688,-2.0689,-2.0689]}]]